Location: Fredericksburg
(30.2750°N, 98.8720°W)
Time: 23:00:09
(UTC-05:00)

Amateur Radio Satellites - All Passes

Search period start: 26 June 2016 22:30
Search period end: 27 June 2016 22:30
Location: Fredericksburg, 30.2750°N, 98.8720°W

Satellite Date Start Highest point End Downlink Frequencies (MHz)
Time Altitude Azimuth
HUMSAT D 26 Jun 22:31:03 22:34:22 24° 72° (ENE) 22:37:45 437.325/437.525
ZACube-1 26 Jun 22:35:00 22:39:02 51° 260° (W) 22:43:10 437.345
Oscar 11 26 Jun 22:49:13 22:53:04 32° 262° (W) 22:56:57 145.826/435.025
AO-85 26 Jun 22:50:24 22:55:47 63° 298° (WNW) 23:01:06 145.980
UWE-3 26 Jun 22:52:33 22:55:34 19° 265° (W) 22:58:37 435.000/436.395/437.385
FUNcube-1 26 Jun 22:54:09 22:57:51 31° 263° (W) 23:01:37 145.935
SRMSAT 26 Jun 22:58:38 23:03:13 23° 191° (S) 23:07:48 437.500
ANTELSAT 26 Jun 23:06:29 23:10:13 23° 96° (E) 23:13:57 437.575/2403.000
RS-15 26 Jun 23:09:53 23:22:12 75° 247° (WSW) 23:34:14 29.354- 29.394
DELFI C3 26 Jun 23:24:29 23:27:50 25° 263° (W) 23:31:12 145.870
ESTCUBE 1 26 Jun 23:25:11 23:28:15 18° 70° (ENE) 23:31:20 437.505/2401.250
AISAT 26 Jun 23:38:11 23:40:49 16° 69° (ENE) 23:43:27 437.250
UKube-1 26 Jun 23:50:23 23:52:00 12° 67° (ENE) 23:53:38 .
TIGRISAT 26 Jun 23:57:54 00:02:34 89° 291° (WNW) 00:07:17 435.000
UNISAT 6 27 Jun 00:02:22 00:07:02 74° 283° (WNW) 00:11:42 437.425
YUBILEINY 27 Jun 00:04:16 00:11:12 25° 74° (ENE) 00:18:04 435.215
DX 1 27 Jun 00:04:28 00:07:55 23° 71° (ENE) 00:11:22 434.975-435.025
HUMSAT D 27 Jun 00:06:57 00:09:54 19° 265° (W) 00:12:53 437.325/437.525
CUBEBUG 1 27 Jun 00:29:09 00:33:30 69° 76° (ENE) 00:37:49 437.445
VELOX 1 27 Jun 00:31:55 00:36:17 68° 77° (ENE) 00:40:41 145.980
BUGSAT 1 27 Jun 00:33:53 00:35:03 11° 94° (E) 00:36:13 437.445
50 SAT 27 Jun 00:35:04 00:38:45 88° 71° (ENE) 00:42:28 437.505
NANOSAT C BR1 27 Jun 00:41:03 00:45:02 40° 99° (E) 00:49:01 145.865
QB50P1 27 Jun 00:42:48 00:46:53 44° 100° (E) 00:50:57 145.935-145.965
ANTELSAT 27 Jun 00:42:57 00:46:47 26° 288° (WNW) 00:50:38 437.575/2403.000
POPSAT HIP 1 27 Jun 00:45:48 00:49:55 48° 100° (E) 00:54:02 437.405
SRMSAT 27 Jun 00:49:43 00:51:48 12° 199° (SSW) 00:53:53 437.500
QB50P2 27 Jun 00:57:29 01:01:45 76° 101° (E) 01:06:01 145.880/145.840
POLYITAN 1 27 Jun 01:00:06 01:04:23 78° 102° (ESE) 01:08:39 437.675
ESTCUBE 1 27 Jun 01:00:45 01:04:47 31° 262° (W) 01:08:49 437.505/2401.250
DUCHIFAT 1 27 Jun 01:02:24 01:06:37 72° 100° (E) 01:10:51 145.980
Cosmos 2491 27 Jun 01:05:04 01:13:06 42° 88° (E) 01:21:06 435.465 / 435.565
JAS-2 27 Jun 01:09:20 01:12:37 16° 93° (E) 01:15:48 435.910
AISAT 27 Jun 01:12:57 01:16:58 34° 261° (W) 01:20:59 437.250
TISAT 1 27 Jun 01:21:35 01:24:46 22° 71° (ENE) 01:27:59 437.305
UKube-1 27 Jun 01:23:30 01:27:36 44° 260° (W) 01:31:44 .
RS-15 27 Jun 01:28:12 01:32:38 13° 263° (W) 01:37:02 29.354- 29.394
SPROUT 27 Jun 01:28:42 01:32:53 60° 259° (W) 01:37:05 437.525
DX 1 27 Jun 01:40:36 01:43:58 22° 263° (W) 01:47:20 434.975-435.025
Oscar 19 27 Jun 01:55:13 01:58:17 16° 95° (E) 02:01:20 437.125/150
SO-50 27 Jun 01:57:55 02:01:56 29° 56° (ENE) 02:05:50 436.795
YUBILEINY 27 Jun 01:59:45 02:08:18 57° 269° (W) 02:16:51 435.215
BUGSAT 1 27 Jun 02:06:40 02:10:31 40° 286° (WNW) 02:14:23 437.445
NANOSAT C BR1 27 Jun 02:18:32 02:20:22 13° 292° (WNW) 02:22:12 145.865
QB50P1 27 Jun 02:20:52 02:22:13 11° 292° (WNW) 02:23:33 145.935-145.965
Cosmos 2504 27 Jun 02:24:04 02:32:55 67° 82° (E) 02:41:17 435.465 / 435.565
POPSAT HIP 1 27 Jun 02:24:19 02:25:13 11° 292° (WNW) 02:26:07 437.405
SWISSCUBE 27 Jun 02:29:12 02:33:14 28° 71° (ENE) 02:37:17 437.505
JAS-2 27 Jun 02:52:47 02:57:59 42° 288° (WNW) 03:02:50 435.910
ITUPSAT 1 27 Jun 02:53:53 02:58:26 46° 74° (ENE) 03:03:02 437.325
BEESAT 27 Jun 02:54:06 02:58:40 47° 74° (ENE) 03:03:15 436.000
TISAT 1 27 Jun 02:57:06 03:00:17 21° 263° (W) 03:03:27 437.305
Cosmos 2491 27 Jun 03:02:09 03:09:51 34° 283° (WNW) 03:17:35 435.465 / 435.565
PCSat 27 Jun 03:08:11 03:13:35 86° 114° (ESE) 03:19:02 145.827
BEESAT 3 27 Jun 03:14:45 03:18:32 52° 114° (ESE) 03:22:21 437.485
Oscar 19 27 Jun 03:32:53 03:37:43 44° 287° (WNW) 03:42:32 437.125/150
Gurwin Techsat 1B 27 Jun 03:34:44 03:40:04 75° 102° (ESE) 03:45:22 435.225
SO-50 27 Jun 03:38:45 03:42:10 21° 251° (WSW) 03:45:31 436.795
BEESAT 2 27 Jun 03:48:49 03:52:44 72° 116° (ESE) 03:56:42 435.950
MOZHAYETS 4 27 Jun 03:51:05 03:54:05 17° 69° (ENE) 03:57:05
ITAMSAT 1 27 Jun 03:51:27 03:56:11 34° 99° (E) 04:00:53 435.822/435.867
AO-7 27 Jun 03:52:40 03:57:48 17° 95° (E) 04:02:54 29.400- 29.500
O/OREOS (USA 219) 27 Jun 03:56:25 04:00:53 67° 289° (WNW) 04:05:21 437.305
SWISSCUBE 27 Jun 04:07:12 04:10:56 23° 264° (W) 04:14:41 437.505
KKS-1 27 Jun 04:12:49 04:16:49 35° 73° (ENE) 04:20:50 437.445
Cosmos 2504 27 Jun 04:19:25 04:25:20 20° 278° (W) 04:31:06 435.465 / 435.565
ITUPSAT 1 27 Jun 04:34:09 04:36:26 13° 266° (W) 04:38:43 437.325
BEESAT 27 Jun 04:34:30 04:36:36 13° 266° (W) 04:38:43 436.000
STARS 27 Jun 04:49:40 04:53:49 45° 74° (ENE) 04:57:58 437.465
BEESAT 3 27 Jun 04:56:08 04:56:30 10° 309° (NW) 04:56:52 437.485
PCSat 27 Jun 04:56:18 04:57:38 11° 309° (NW) 04:58:57 145.827
CUBESAT XI-V 27 Jun 05:14:10 05:16:53 15° 69° (ENE) 05:19:35 437.345
Gurwin Techsat 1B 27 Jun 05:18:23 05:19:18 10° 296° (WNW) 05:20:13 435.225
MOZHAYETS 4 27 Jun 05:26:46 05:30:55 34° 262° (W) 05:35:08
ITAMSAT 1 27 Jun 05:31:26 05:35:22 22° 292° (WNW) 05:39:17 435.822/435.867
AIST 1 27 Jun 05:34:00 05:38:15 88° 88° (E) 05:42:30
HORYU 2 27 Jun 05:35:27 05:38:46 20° 96° (E) 05:42:03 437.375
AO-7 27 Jun 05:42:43 05:51:05 76° 289° (WNW) 05:59:24 29.400- 29.500
KKS-1 27 Jun 05:50:55 05:53:25 15° 265° (W) 05:55:57 437.445
AIST 2 27 Jun 05:53:51 05:57:56 85° 116° (ESE) 06:02:04 435.215
GONETS M04 27 Jun 06:00:57 06:08:38 33° 77° (ENE) 06:16:17
STARS 27 Jun 06:29:10 06:30:19 11° 266° (W) 06:31:28 437.465
CUBESAT XI-V 27 Jun 06:49:27 06:53:52 40° 261° (W) 06:58:17 437.345
BRITE-PL 27 Jun 06:51:14 06:54:23 21° 97° (E) 06:57:35 437.365/2234.400
NOAA 15 27 Jun 06:53:08 06:57:34 27° 97° (E) 07:01:57 137.62
NOAA 18 27 Jun 07:04:57 07:09:42 29° 98° (E) 07:14:26 137.9125
Cosmos 2499 27 Jun 07:05:37 07:14:14 61° 81° (E) 07:22:15 435.465 / 435.565
HORYU 2 27 Jun 07:11:27 07:15:14 27° 289° (WNW) 07:19:01 437.375
CUSAT 1 27 Jun 07:22:33 07:28:40 25° 89° (E) 07:34:20 437.405
Cubesat XI-IV 27 Jun 07:23:47 07:28:50 40° 99° (E) 07:33:51 437.490
AO-85 27 Jun 07:29:14 07:32:42 22° 54° (NE) 07:35:57 145.980
STRAND 1 27 Jun 07:29:56 07:34:24 31° 71° (ENE) 07:38:53 437.568
DANDE 27 Jun 07:32:04 07:35:51 14° 83° (E) 07:39:37 436.750
GOMX 1 27 Jun 07:32:52 07:36:33 28° 98° (E) 07:40:21 467.674
PHONESAT 2.4 27 Jun 07:37:31 07:40:34 87° 332° (NNW) 07:43:38 2401.200-2431.200
LilacSat-2 27 Jun 07:39:01 07:42:52 62° 100° (E) 07:46:42 437.200
AO-7 27 Jun 07:39:13 07:42:27 13° 305° (NW) 07:45:42 29.400- 29.500
GONETS M04 27 Jun 07:57:23 08:05:23 42° 272° (W) 08:13:25
CUTE-I 27 Jun 07:58:24 08:03:49 87° 283° (WNW) 08:09:10 437.470
ISS 27 Jun 08:23:14 08:25:11 15° 126° (SE) 08:27:09 145.825
BRITE-PL 27 Jun 08:29:40 08:32:46 21° 288° (WNW) 08:35:55 437.365/2234.400
NOAA 15 27 Jun 08:32:50 08:37:11 27° 290° (WNW) 08:41:31 137.62
DOVE 4 27 Jun 08:40:43 08:45:05 84° 101° (E) 08:49:43 437.250
NOAA 18 27 Jun 08:45:30 08:50:12 29° 291° (WNW) 08:54:54 137.9125
HO-68 27 Jun 08:47:51 08:54:02 31° 98° (E) 09:00:12 435.675
PRISM 27 Jun 08:58:49 09:02:38 36° 73° (ENE) 09:06:26 437.425
Cosmos 2499 27 Jun 09:00:20 09:06:30 22° 278° (W) 09:12:26 435.465 / 435.565
CUSAT 1 27 Jun 09:02:35 09:10:24 55° 279° (W) 09:17:24 437.405
Cubesat XI-IV 27 Jun 09:04:45 09:08:32 20° 292° (WNW) 09:12:20 437.490
DANDE 27 Jun 09:09:22 09:17:39 84° 96° (E) 09:25:53 436.750
STRAND 1 27 Jun 09:09:31 09:13:30 23° 264° (W) 09:17:32 437.568
AAUSAT CUBESAT 2 27 Jun 09:09:38 09:11:25 12° 94° (E) 09:13:12 437.432
AO-85 27 Jun 09:09:41 09:13:00 22° 251° (WSW) 09:16:07 145.980
GOMX 1 27 Jun 09:11:40 09:14:26 17° 289° (WNW) 09:17:16 467.674
PHONESAT 2.4 27 Jun 09:15:14 09:17:28 18° 345° (NNW) 09:19:42 2401.200-2431.200
CANX-2 27 Jun 09:32:09 09:36:27 89° 112° (ESE) 09:40:42 2200.000
COMPASS 1 27 Jun 09:40:14 09:44:12 42° 99° (E) 09:48:08 437.405
M-CUBED/EXP-1 PRIME 27 Jun 09:41:59 09:44:42 17° 102° (ESE) 09:47:30 437.505
CINEMA 3 27 Jun 09:47:49 09:52:21 61° 284° (WNW) 09:57:04 145.822/145.860
CUTE 1.7 + AOD 2 27 Jun 09:52:33 09:56:45 58° 285° (WNW) 10:00:55 437.475
CUBEBUG 2 27 Jun 09:55:31 09:59:57 44° 99° (E) 10:04:28 437.445
ISS 27 Jun 09:58:28 10:01:24 31° 319° (NW) 10:04:20 145.825
SEEDS 27 Jun 09:59:20 10:03:34 70° 282° (WNW) 10:07:43 437.485
ZACube-1 27 Jun 10:28:38 10:33:01 45° 99° (E) 10:37:24 437.345
HO-68 27 Jun 10:35:06 10:41:42 40° 292° (WNW) 10:48:17 435.675
PRISM 27 Jun 10:36:07 10:37:59 13° 265° (W) 10:39:52 437.425
AUBIESAT-1 27 Jun 10:37:12 10:41:12 72° 107° (ESE) 10:45:30 437.475
Oscar 11 27 Jun 10:41:32 10:45:54 71° 102° (ESE) 10:50:12 145.826/435.025
AAUSAT CUBESAT 2 27 Jun 10:43:10 10:46:58 36° 286° (WNW) 10:50:45 437.432
UWE-3 27 Jun 10:46:03 10:50:38 69° 283° (WNW) 10:55:16 435.000/436.395/437.385
FUNcube-1 27 Jun 10:46:56 10:51:29 72° 102° (ESE) 10:56:02 145.935
TIGRISAT 27 Jun 10:51:11 10:55:05 36° 74° (ENE) 10:59:04 435.000
PHONESAT 2.4 27 Jun 10:53:29 10:54:51 12° 2° (N) 10:56:13 2401.200-2431.200
UNISAT 6 27 Jun 10:55:38 10:59:41 45° 74° (ENE) 11:03:50 437.425
DANDE 27 Jun 10:55:54 11:01:07 18° 289° (WNW) 11:06:16 436.750
DELFI C3 27 Jun 11:07:05 11:11:02 60° 101° (E) 11:14:55 145.870
M-CUBED/EXP-1 PRIME 27 Jun 11:15:43 11:19:08 28° 290° (WNW) 11:22:46 437.505
RS-15 27 Jun 11:15:46 11:24:37 28° 103° (ESE) 11:33:47 29.354- 29.394
COMPASS 1 27 Jun 11:17:57 11:19:19 11° 292° (WNW) 11:20:41 437.405
Cosmos 2491 27 Jun 11:25:11 11:29:12 14° 69° (ENE) 11:33:11 435.465 / 435.565
NANOSAT C BR1 27 Jun 11:29:08 11:31:22 14° 69° (ENE) 11:33:37 145.865
QB50P1 27 Jun 11:30:55 11:33:29 16° 70° (ENE) 11:36:03 145.935-145.965
CUBEBUG 2 27 Jun 11:33:47 11:36:10 14° 291° (WNW) 11:38:34 437.445
POPSAT HIP 1 27 Jun 11:33:48 11:36:32 17° 70° (ENE) 11:39:16 437.405
ANTELSAT 27 Jun 11:35:23 11:39:32 54° 260° (W) 11:43:48 437.575/2403.000
QB50P2 27 Jun 11:44:55 11:48:23 26° 72° (ENE) 11:51:51 145.880/145.840
POLYITAN 1 27 Jun 11:47:31 11:51:00 26° 72° (ENE) 11:54:30 437.675
DUCHIFAT 1 27 Jun 11:49:12 11:52:32 24° 72° (ENE) 11:55:52 145.980
HUMSAT D 27 Jun 11:54:34 11:58:52 79° 284° (WNW) 12:03:10 437.325/437.525
PCSat 27 Jun 12:02:48 12:06:53 21° 56° (ENE) 12:10:55 145.827
ZACube-1 27 Jun 12:06:45 12:08:51 13° 292° (WNW) 12:10:58 437.345
50 SAT 27 Jun 12:12:01 12:13:08 11° 94° (E) 12:14:14 437.505
CUBEBUG 1 27 Jun 12:24:21 12:27:29 19° 96° (E) 12:30:36 437.445
VELOX 1 27 Jun 12:28:36 12:31:50 20° 96° (E) 12:35:03 145.980
PHONESAT 2.4 27 Jun 12:29:38 12:32:10 23° 19° (NNE) 12:34:41 2401.200-2431.200
TIGRISAT 27 Jun 12:29:55 12:31:53 13° 266° (W) 12:33:52 435.000
UNISAT 6 27 Jun 12:35:53 12:36:36 10° 267° (W) 12:37:19 437.425
BUGSAT 1 27 Jun 12:50:21 12:54:18 59° 77° (ENE) 12:58:15 437.445
JAS-2 27 Jun 12:55:55 13:03:12 45° 72° (ENE) 13:10:01 435.910
YUBILEINY 27 Jun 12:57:40 13:05:13 34° 87° (E) 13:12:47 435.215
ESTCUBE 1 27 Jun 12:58:23 13:02:53 85° 101° (E) 13:07:21 437.505/2401.250
NANOSAT C BR1 27 Jun 13:03:00 13:06:46 33° 262° (W) 13:10:33 145.865
QB50P1 27 Jun 13:05:19 13:08:58 29° 262° (W) 13:12:39 145.935-145.965
Oscar 19 27 Jun 13:07:25 13:09:55 14° 66° (ENE) 13:12:24 437.125/150
AISAT 27 Jun 13:08:17 13:12:40 68° 102° (ESE) 13:17:01 437.250
POPSAT HIP 1 27 Jun 13:08:29 13:12:03 27° 262° (W) 13:15:40 437.405
BEESAT 3 27 Jun 13:14:35 13:18:32 80° 63° (ENE) 13:22:28 437.485
UKube-1 27 Jun 13:16:08 13:20:16 45° 100° (E) 13:24:22 .
Cosmos 2491 27 Jun 13:18:16 13:27:01 89° 262° (W) 13:35:44 435.465 / 435.565
SPROUT 27 Jun 13:20:28 13:24:23 34° 98° (E) 13:28:17 437.525
QB50P2 27 Jun 13:21:12 13:24:06 18° 264° (W) 13:27:01 145.880/145.840
POLYITAN 1 27 Jun 13:23:54 13:26:44 18° 264° (W) 13:29:35 437.675
RS-15 27 Jun 13:24:48 13:35:57 66° 300° (WNW) 13:47:50 29.354- 29.394
DUCHIFAT 1 27 Jun 13:25:07 13:28:07 19° 264° (W) 13:31:09 145.980
DX 1 27 Jun 13:33:16 13:37:36 82° 283° (WNW) 13:41:55 434.975-435.025
50 SAT 27 Jun 13:43:35 13:46:50 30° 286° (WNW) 13:50:03 437.505
PCSat 27 Jun 13:45:19 13:50:22 41° 251° (WSW) 13:55:24 145.827
BEESAT 2 27 Jun 13:49:43 13:53:42 74° 243° (WSW) 13:57:38 435.950
CUBEBUG 1 27 Jun 14:00:07 14:03:40 25° 288° (WNW) 14:07:13 437.445
VELOX 1 27 Jun 14:04:34 14:08:12 26° 288° (WNW) 14:11:50 145.980
PHONESAT 2.4 27 Jun 14:05:54 14:08:56 55° 213° (SSW) 14:11:57 2401.200-2431.200
O/OREOS (USA 219) 27 Jun 14:12:04 14:16:33 87° 65° (ENE) 14:21:02 437.305
JUGNU 27 Jun 14:22:09 14:23:41 11° 160° (SSE) 14:25:13 437.505
AIST 2 27 Jun 14:23:04 14:24:05 11° 51° (NE) 14:25:06 435.215
SWISSCUBE 27 Jun 14:37:28 14:38:39 11° 93° (E) 14:39:51 437.505
JAS-2 27 Jun 14:41:30 14:48:07 30° 263° (W) 14:54:26 435.910
Oscar 19 27 Jun 14:43:40 14:48:43 55° 259° (W) 14:53:45 437.125/150
TISAT 1 27 Jun 14:45:25 14:49:37 89° 106° (ESE) 14:53:51 437.305
AO-7 27 Jun 14:47:01 14:51:29 16° 57° (ENE) 14:55:57 29.400- 29.500
Gurwin Techsat 1B 27 Jun 14:49:58 14:55:13 67° 75° (ENE) 15:00:29 435.225
YUBILEINY 27 Jun 14:53:42 15:01:42 41° 282° (WNW) 15:09:48 435.215
Cosmos 2504 27 Jun 14:54:24 15:02:09 63° 91° (E) 15:10:30 435.465 / 435.565
UKube-1 27 Jun 14:54:26 14:55:50 11° 293° (WNW) 14:57:16 .
SPROUT 27 Jun 14:57:36 14:59:58 15° 291° (WNW) 15:02:21 437.525
BEESAT 27 Jun 15:00:51 15:04:17 19° 96° (E) 15:07:42 436.000
ITUPSAT 1 27 Jun 15:01:03 15:04:28 19° 96° (E) 15:07:50 437.325
ITAMSAT 1 27 Jun 15:03:57 15:08:25 30° 70° (ENE) 15:12:53 435.822/435.867
Cosmos 2491 27 Jun 15:19:23 15:22:32 12° 281° (W) 15:25:43 435.465 / 435.565
RS-15 27 Jun 15:44:20 15:51:18 17° 326° (NW) 15:58:30 29.354- 29.394
AIST 2 27 Jun 15:58:48 16:02:52 56° 246° (WSW) 16:06:55 435.215
SO-50 27 Jun 16:05:54 16:10:21 37° 112° (ESE) 16:14:51 436.795
JUGNU 27 Jun 16:07:35 16:12:08 23° 168° (SSE) 16:16:41 437.505
SWISSCUBE 27 Jun 16:12:00 16:16:40 55° 286° (WNW) 16:21:19 437.505
KKS-1 27 Jun 16:12:03 16:12:58 11° 94° (E) 16:13:52 437.445
ISS 27 Jun 16:30:59 16:33:11 17° 37° (NE) 16:35:23 145.825
Gurwin Techsat 1B 27 Jun 16:34:31 16:35:30 10° 267° (W) 16:36:29 435.225
AO-7 27 Jun 16:34:45 16:43:05 89° 77° (ENE) 16:51:29 29.400- 29.500
BEESAT 27 Jun 16:37:49 16:42:02 32° 288° (WNW) 16:46:14 436.000
ITUPSAT 1 27 Jun 16:38:00 16:42:16 32° 288° (WNW) 16:46:30 437.325
ITAMSAT 1 27 Jun 16:43:34 16:47:46 25° 263° (W) 16:52:00 435.822/435.867
STARS 27 Jun 16:46:23 16:48:30 13° 95° (E) 16:50:38 437.465
Cosmos 2504 27 Jun 16:50:25 16:56:07 21° 289° (WNW) 17:02:07 435.465 / 435.565
SRMSAT 27 Jun 17:20:50 17:24:17 16° 163° (SSE) 17:27:44 437.500
MOZHAYETS 4 27 Jun 17:26:58 17:31:38 87° 104° (ESE) 17:36:14
KKS-1 27 Jun 17:45:25 17:49:42 49° 286° (WNW) 17:53:59 437.445
SO-50 27 Jun 17:47:13 17:50:54 21° 306° (NW) 17:54:35 436.795
JUGNU 27 Jun 17:55:31 18:00:40 30° 178° (S) 18:05:49 437.505
BRITE-PL 27 Jun 17:56:43 18:00:01 17° 71° (ENE) 18:03:10 437.365/2234.400
AIST 1 27 Jun 17:56:58 18:01:17 68° 94° (E) 18:05:33
HORYU 2 27 Jun 18:02:55 18:07:16 60° 259° (W) 18:11:39 437.375
ISS 27 Jun 18:06:43 18:09:41 32° 231° (SW) 18:12:37 145.825
NOAA 15 27 Jun 18:07:46 18:12:04 26° 70° (ENE) 18:16:22 137.62
LilacSat-2 27 Jun 18:17:12 18:19:02 13° 70° (ENE) 18:20:53 437.200
STARS 27 Jun 18:20:51 18:24:56 39° 287° (WNW) 18:29:02 437.465
NOAA 18 27 Jun 18:25:41 18:30:25 31° 70° (ENE) 18:35:11 137.9125
AO-7 27 Jun 18:32:50 18:36:33 13° 266° (W) 18:40:16 29.400- 29.500
GOMX 1 27 Jun 18:36:18 18:39:27 18° 71° (ENE) 18:42:28 467.674
Cubesat XI-IV 27 Jun 18:40:09 18:45:02 38° 72° (ENE) 18:49:56 437.490
CUBESAT XI-V 27 Jun 18:51:28 18:56:05 79° 101° (E) 19:00:39 437.345
GONETS M04 27 Jun 18:54:21 19:02:31 46° 89° (E) 19:10:38
SRMSAT 27 Jun 19:08:02 19:12:55 27° 172° (S) 19:17:48 437.500
HO-68 27 Jun 19:14:13 19:16:45 12° 59° (ENE) 19:19:18 435.675
CUTE-I 27 Jun 19:14:21 19:19:40 87° 77° (ENE) 19:25:03 437.470
BRITE-PL 27 Jun 19:33:16 19:38:12 41° 261° (W) 19:42:49 437.365/2234.400
Cosmos 2499 27 Jun 19:33:48 19:41:37 56° 90° (E) 19:50:00 435.465 / 435.565
DOVE 4 27 Jun 19:40:55 19:45:04 40° 75° (ENE) 19:49:03 437.250
JUGNU 27 Jun 19:44:20 19:49:13 26° 188° (S) 19:54:06 437.505
CUSAT 1 27 Jun 19:46:53 19:50:14 72° 82° (E) 19:52:59 437.405
NOAA 15 27 Jun 19:47:04 19:51:39 30° 262° (W) 19:56:15 137.62
STRAND 1 27 Jun 19:47:05 19:50:23 17° 95° (E) 19:53:39 437.568
LilacSat-2 27 Jun 19:49:47 19:53:02 28° 263° (W) 19:56:20 437.200
DANDE 27 Jun 19:59:44 20:03:48 31° 74° (ENE) 20:06:57 436.750
NOAA 18 27 Jun 20:06:33 20:11:00 26° 263° (W) 20:15:28 137.9125
GOMX 1 27 Jun 20:13:01 20:17:19 32° 261° (W) 20:21:21 467.674
CANX-2 27 Jun 20:19:24 20:23:05 29° 73° (ENE) 20:26:47 2200.000
Cubesat XI-IV 27 Jun 20:21:17 20:25:08 20° 264° (W) 20:29:01 437.490
RS-15 27 Jun 20:22:35 20:31:48 23° 41° (NE) 20:40:55 29.354- 29.394
COMPASS 1 27 Jun 20:26:48 20:29:02 14° 69° (ENE) 20:31:17 437.405
CUTE 1.7 + AOD 2 27 Jun 20:39:11 20:43:14 44° 75° (ENE) 20:47:18 437.475
CINEMA 3 27 Jun 20:44:02 20:48:08 59° 76° (ENE) 20:52:12 145.822/145.860
SEEDS 27 Jun 20:45:14 20:49:06 36° 74° (ENE) 20:53:00 437.485
CUBEBUG 2 27 Jun 20:49:29 20:52:08 17° 70° (ENE) 20:54:49 437.445
GONETS M04 27 Jun 20:52:03 20:59:23 30° 284° (WNW) 21:06:46
HO-68 27 Jun 20:56:14 21:03:23 85° 75° (ENE) 21:10:35 435.675
SRMSAT 27 Jun 20:56:32 21:01:37 30° 182° (S) 21:06:41 437.500
AUBIESAT-1 27 Jun 21:19:17 21:22:07 27° 70° (ENE) 21:24:57 437.475
ZACube-1 27 Jun 21:20:09 21:22:48 17° 70° (ENE) 21:25:29 437.345
DOVE 4 27 Jun 21:21:14 21:22:50 12° 265° (W) 21:24:26 437.250
STRAND 1 27 Jun 21:24:49 21:29:39 41° 287° (WNW) 21:34:26 437.568
AAUSAT CUBESAT 2 27 Jun 21:26:56 21:31:03 65° 77° (ENE) 21:35:13 437.432
Cosmos 2499 27 Jun 21:28:43 21:35:07 25° 287° (WNW) 21:41:53 435.465 / 435.565
Oscar 11 27 Jun 21:30:59 21:34:33 26° 72° (ENE) 21:38:08 145.826/435.025
JUGNU 27 Jun 21:34:21 21:37:42 15° 197° (SSW) 21:41:02 437.505
AO-85 27 Jun 21:36:11 21:41:05 35° 111° (ESE) 21:45:56 145.980
FUNcube-1 27 Jun 21:37:24 21:40:49 25° 72° (ENE) 21:44:18 145.935
UWE-3 27 Jun 21:37:30 21:41:26 44° 75° (ENE) 21:45:27 435.000/436.395/437.385
DELFI C3 27 Jun 21:48:30 21:51:01 16° 70° (ENE) 21:53:31 145.870
CANX-2 27 Jun 21:56:09 21:58:54 17° 265° (W) 22:01:40 2200.000
M-CUBED/EXP-1 PRIME 27 Jun 21:57:24 22:00:37 51° 254° (WSW) 22:03:48 437.505
COMPASS 1 27 Jun 22:00:25 22:04:15 34° 262° (W) 22:08:06 437.405
CUTE 1.7 + AOD 2 27 Jun 22:18:14 22:19:13 11° 267° (W) 22:20:12 437.475
PRISM 27 Jun 22:20:51 22:24:51 58° 285° (WNW) 22:28:50 437.425
SEEDS 27 Jun 22:22:50 22:24:51 13° 266° (W) 22:26:54 437.485
